Temp
0 -0 -1 -1 -1 -1 -1 -2 -2 -1 -1 -1 -1 -2 -1 0 0 1 1 1 1 2 1 1 1 2 2 2 2 2 2 2 2 2 1 0 0 0 0 1 2 1 2 2 2 2 3
0 -0 -0 -1 -1 -1 -1 -2 -1 -2 -1 -1 -1 -2 -2 -2 -0 0 1 1 1 1 1 1 1 2 2 2 1 2 2 2 1 1 1 -0 1 -0 -0 0 0 1 1 2 2 2 3
-1 -1 -1 -1 -1 -2 -2 -1 -1 -2 -2 -2 -1 -2 -2 -3 -1 -0 0 0 1 1 1 1 1 1 2 0 2 2 2 2 1 1 0 -0 -1 -0 -0 1 -1 0 1 1 2 3 3
-1 -2 -2 -2 -1 -1 -2 -2 -2 -1 -1 -2 -2 -2 -2 -2 -3 -1 -1 -0 0 0 0 0 0 1 1 1 1 1 1 1 1 1 0 -0 -1 -1 -1 -1 -1 -2 -2 0 2 2 2
-3 -3 -3 -3 -3 -3 -2 -2 -3 -2 -2 -1 -2 -2 -2 -2 -2 -3 -2 -1 -1 -0 -0 -0 -0 0 1 1 1 1 1 1 0 0 -0 -1 -1 -1 -1 -3 -3 -2 -2 -2 -1 -0 0
-4 -4 -4 -4 -4 -4 -4 -3 -3 -3 -3 -2 -2 -2 -2 -2 -2 -3 -3 -2 -2 -1 -1 -1 -0 -0 0 0 1 1 1 1 0 -0 -1 -1 -2 -3 -4 -3 -3 -3 -2 -3 -3 -2 -1
-5 -5 -5 -5 -5 -4 -4 -4 -4 -4 -4 -3 -2 -2 -3 -2 -3 -3 -4 -3 -3 -2 -1 -1 -0 -0 0 0 -0 0 0 -0 -0 -1 -1 -2 -3 -4 -1 -2 -3 -3 -3 -3 -3 -2 -2
-5 -6 -7 -10 -10 -7 -7 -7 -7 -7 -7 -5 -3 -3 -3 -2 -3 -3 -4 -3 -3 -2 -2 -2 -1 -1 0 -0 -1 -1 -1 -1 -1 -1 -2 -3 -2 -1 -2 -3 -3 -4 -3 -3 -3 -2 -2
-5 -6 -8 -9 -10 -10 -10 -9 -9 -9 -8 -8 -5 -4 -3 -3 -3 -3 -3 -3 -3 -4 -3 -2 -2 -1 -1 -1 -1 -1 -2 -2 -2 -3 -3 -2 -2 -2 -2 -2 -3 -3 -3 -3 -3 -2 -2
-6 -7 -9 -10 -10 -10 -9 -10 -9 -9 -8 -8 -8 -5 -5 -3 -3 -3 -3 -4 -4 -5 -4 -2 -1 -1 -1 -2 -3 -1 -2 -3 -4 -4 -4 -4 -3 -3 -3 -4 -3 -3 -3 -3 -3 -4 -4
-6 -8 -9 -10 -10 -10 -10 -10 -9 -9 -9 -8 -8 -6 -6 -4 -3 -3 -3 -4 -5 -4 -7 -2 -3 -3 -2 -2 -3 -2 -2 -4 -5 -5 -4 -3 -3 -3 -4 -3 -4 -5 -4 -4 -4 -4 -4
-7 -9 -9 -10 -11 -10 -10 -10 -9 -8 -8 -7 -8 -8 -6 -5 -4 -3 -4 -4 -4 -4 -6 -3 -4 -4 -4 -4 -3 -2 -2 -4 -4 -4 -4 -4 -4 -4 -4 -4 -4 -5 -5 -4 -4 -4 -4
-9 -10 -10 -10 -11 -10 -10 -9 -9 -9 -8 -8 -8 -8 -7 -5 -4 -3 -4 -4 -5 -5 -3 -3 -4 -3 -4 -4 -4 -4 -4 -4 -4 -4 -4 -4 -4 -4 -4 -4 -4 -5 -4 -4 -4 -4 -4
-9 -10 -10 -11 -11 -10 -10 -9 -9 -8 -7 -7 -7 -7 -7 -6 -4 -3 -3 -4 -4 -3 -2 -3 -3 -3 -4 -3 -4 -4 -4 -5 -5 -4 -4 -4 -4 -3 -3 -3 -3 -4 -4 -4 -4 -4 -6
-10 -10 -10 -11 -11 -10 -9 -9 -9 -8 -8 -7 -7 -6 -6 -5 -5 -4 -3 -5 -3 -2 -1 -1 -3 -3 -3 -4 -5 -5 -5 -5 -5 -4 -5 -5 -5 -4 -3 -3 -4 -5 -5 -3 -4 -5 -4
-10 -10 -11 -11 -11 -11 -9 -8 -9 -8 -7 -8 -8 -7 -5 -5 -5 -4 -4 -4 -3 -2 -2 -2 -1 -2 -4 -4 -4 -5 -5 -3 -3 -3 -5 -5 -5 -4 -4 -4 -5 -5 -5 -5 -4 -4 -4
-10 -11 -11 -11 -11 -11 -9 -9 -8 -8 -7 -7 -6 -7 -5 -5 -5 -5 -5 -4 -4 -2 -2 -2 -2 -2 -2 -3 -4 -4 -3 -2 -2 -3 -4 -6 -6 -5 -5 -5 -4 -5 -5 -5 -5 -4 -6
-10 -11 -11 -11 -11 -11 -9 -8 -8 -8 -7 -7 -7 -7 -6 -6 -6 -5 -5 -5 -3 -3 -3 -2 -3 -2 -3 -3 -4 -5 -4 -3 -3 -3 -3 -4 -6 -5 -5 -3 -4 -5 -4 -5 -4 -5 -4
-11 -11 -11 -11 -12 -11 -10 -8 -8 -8 -7 -7 -7 -7 -6 -5 -5 -5 -5 -4 -4 -4 -3 -3 -3 -3 -3 -4 -4 -4 -4 -3 -4 -3 -3 -4 -5 -5 -4 -4 -5 -5 -5 -5 -5 -4 -5
-12 -12 -11 -11 -12 -11 -9 -8 -7 -7 -7 -7 -6 -5 -5 -5 -5 -4 -5 -5 -4 -4 -3 -3 -3 -3 -4 -4 -4 -4 -4 -4 -4 -3 -4 -5 -5 -4 -4 -2 -4 -5 -5 -5 -5 -4 -4
-12 -12 -11 -11 -12 -12 -9 -8 -7 -7 -7 -6 -5 -5 -4 -5 -5 -5 -4 -4 -4 -4 -3 -3 -4 -3 -3 -4 -4 -4 -3 -4 -4 -4 -4 -4 -4 -4 -3 -3 -4 -4 -4 -4 -4 -4 -4
-12 -12 -12 -11 -11 -11 -10 -8 -6 -7 -6 -6 -4 -5 -5 -4 -5 -5 -4 -4 -4 -4 -4 -4 -3 -3 -3 -4 -4 -4 -4 -3 -3 -4 -4 -4 -4 -3 -3 -3 -4 -4 -4 -4 -4 -4 -4
-12 -12 -12 -11 -11 -11 -10 -8 -8 -7 -6 -5 -4 -4 -5 -4 -5 -4 -4 -3 -3 -4 -3 -3 -3 -3 -3 -3 -4 -4 -4 -4 -3 -4 -4 -3 -3 -4 -3 -3 -2 -2 -2 -2 -3 -4 -3
-12 -12 -12 -12 -11 -11 -10 -8 -7 -7 -6 -5 -5 -4 -4 -4 -4 -4 -3 -4 -3 -3 -3 -3 -3 -4 -3 -4 -4 -4 -4 -3 -2 -2 -3 -3 -3 -3 -3 -1 -1 -1 -2 -2 -2 -2 -2
-12 -12 -12 -12 -11 -11 -10 -8 -7 -7 -5 -5 -4 -4 -4 -4 -4 -4 -4 -4 -4 -3 -4 -3 -4 -3 -3 -4 -4 -3 -3 -2 -1 -1 -2 -2 -2 -3 -2 -2 -1 0 -1 -1 -1 -1 -0
-12 -12 -12 -12 -12 -11 -10 -8 -7 -7 -6 -5 -5 -4 -4 -4 -3 -4 -3 -4 -3 -3 -3 -3 -3 -4 -4 -4 -4 -3 -2 -2 -1 -2 -2 -2 -2 -3 -2 -2 -1 1 1 1 1 2 2
-12 -12 -12 -12 -12 -11 -10 -8 -8 -6 -6 -6 -5 -4 -4 -4 -4 -4 -3 -3 -3 -4 -3 -3 -3 -3 -3 -4 -3 -2 -2 -2 -2 -2 -2 -2 -2 -2 -2 -2 0 1 1 2 2 2 2
-12 -12 -12 -12 -12 -11 -10 -8 -7 -6 -6 -5 -4 -5 -4 -4 -4 -3 -3 -3 -3 -3 -3 -3 -4 -3 -3 -4 -3 -2 -2 -2 -2 -2 -1 -1 -1 -1 -2 -2 -1 1 2 2 2 2 3
-12 -12 -12 -11 -12 -11 -9 -8 -8 -7 -7 -4 -4 -3 -4 -4 -4 -4 -4 -3 -3 -3 -3 -3 -3 -3 -3 -3 -3 -2 -2 -2 -1 -0 -0 -1 -0 -1 -1 0 1 1 2 2 3 3 4
Height
3061 3058 3054 3052 3049 3046 3045 3044 3044 3042 3041 3041 3041 3041 3041 3041 3043 3043 3044 3044 3046 3048 3049 3049 3049 3050 3052 3054 3055 3055 3058 3059 3060 3062 3064 3066 3069 3071 3071 3073 3075 3072 3076 3078 3078 3080 3082
3057 3053 3049 3046 3042 3039 3037 3037 3036 3035 3034 3033 3035 3035 3036 3036 3037 3039 3040 3040 3041 3043 3045 3045 3046 3047 3049 3051 3051 3051 3052 3054 3057 3059 3061 3062 3063 3066 3066 3067 3069 3068 3070 3071 3072 3074 3076
3052 3047 3043 3038 3035 3032 3029 3027 3027 3027 3027 3027 3027 3028 3030 3031 3031 3033 3035 3036 3037 3038 3040 3041 3042 3044 3045 3047 3047 3048 3049 3050 3052 3055 3058 3059 3060 3061 3062 3064 3064 3064 3064 3065 3066 3070 3070
3046 3041 3036 3031 3026 3021 3019 3017 3016 3016 3017 3019 3019 3021 3023 3026 3026 3027 3030 3031 3032 3033 3036 3037 3039 3040 3042 3043 3045 3046 3046 3046 3049 3051 3054 3055 3056 3057 3057 3060 3060 3062 3061 3060 3062 3064 3065
3040 3034 3028 3023 3018 3013 3009 3004 3005 3005 3006 3007 3009 3011 3014 3018 3021 3022 3024 3025 3026 3029 3031 3032 3035 3037 3039 3039 3040 3041 3043 3043 3044 3047 3049 3050 3051 3053 3054 3056 3058 3059 3056 3056 3057 3060 3061
3031 3025 3021 3015 3009 3003 2999 2995 2992 2993 2995 2997 2999 3002 3006 3010 3014 3017 3018 3019 3019 3023 3026 3028 3031 3036 3034 3034 3036 3037 3039 3040 3041 3043 3045 3047 3047 3047 3049 3053 3050 3051 3053 3054 3054 3056 3055
3019 3012 3006 3005 3001 2995 2989 2985 2983 2980 2981 2985 2988 2993 2996 3002 3006 3010 3011 3014 3018 3019 3020 3025 3027 3029 3029 3030 3032 3034 3035 3036 3037 3039 3041 3041 3042 3039 3043 3048 3049 3050 3050 3049 3050 3051 3049
3014 3006 2999 2994 2988 2985 2981 2976 2973 2972 2970 2972 2976 2981 2991 2995 2998 3001 3004 3006 3011 3015 3017 3018 3021 3024 3025 3026 3028 3030 3033 3034 3033 3035 3038 3039 3033 3039 3042 3044 3045 3045 3045 3043 3043 3046 3046
3012 3004 2996 2990 2983 2978 2974 2970 2967 2965 2964 2962 2964 2970 2980 2986 2991 2992 2998 3003 3007 3010 3013 3015 3016 3018 3021 3022 3022 3025 3028 3028 3030 3031 3034 3033 3034 3035 3038 3038 3039 3038 3038 3040 3040 3041 3037
3009 3000 2991 2985 2978 2972 2967 2963 2961 2958 2956 2955 2956 2961 2972 2977 2985 2985 2989 2998 3003 3009 3012 3010 3009 3011 3014 3015 3016 3019 3021 3026 3026 3028 3032 3029 3029 3030 3031 3031 3036 3033 3035 3036 3035 3039 3034
3004 2995 2987 2980 2973 2966 2960 2957 2955 2951 2948 2947 2948 2951 2962 2967 2974 2977 2988 2994 3000 3008 3012 3005 3002 3004 3005 3012 3014 3015 3016 3019 3021 3024 3028 3022 3023 3027 3026 3027 3032 3030 3032 3032 3033 3033 3031
2998 2990 2983 2975 2967 2960 2954 2951 2949 2945 2940 2939 2940 2944 2952 2958 2963 2971 2981 2991 2999 3008 3003 2998 2998 3000 3005 3007 3011 3012 3014 3017 3019 3020 3019 3019 3021 3021 3022 3026 3027 3028 3029 3029 3029 3029 3019
2993 2986 2978 2970 2963 2956 2951 2947 2942 2936 2930 2930 2932 2937 2943 2952 2957 2965 2975 2983 2996 2997 2997 2995 2995 2998 3002 3006 3009 3010 3012 3014 3016 3017 3015 3015 3014 3015 3018 3020 3023 3023 3025 3024 3022 3018 3006
2988 2981 2973 2966 2959 2952 2947 2944 2936 2931 2927 2926 2927 2931 2938 2946 2952 2958 2969 2979 2984 2986 2990 2990 2992 2996 3000 3004 3006 3008 3009 3009 3010 3012 3013 3012 3007 3007 3007 3009 3013 3013 3018 3017 3010 3009 3005
2983 2976 2968 2961 2954 2948 2944 2940 2934 2929 2925 2924 2924 2928 2935 2942 2947 2953 2965 2972 2975 2981 2986 2988 2991 2995 2999 3002 3004 3005 3005 3004 3004 3007 3010 3008 3003 3000 3002 3005 3009 3008 3008 3007 3006 3004 3002
2978 2971 2964 2957 2950 2944 2940 2938 2934 2927 2923 2922 2924 2925 2932 2936 2943 2951 2963 2967 2974 2979 2982 2987 2989 2994 2994 2998 3000 3001 3000 2999 2998 2999 3004 3005 3001 2998 2999 3001 3001 3001 3002 3004 3001 2997 2991
2972 2966 2959 2953 2946 2940 2937 2934 2931 2925 2918 2918 2922 2927 2932 2938 2945 2951 2958 2965 2973 2978 2982 2985 2988 2990 2992 2994 2996 2997 2997 2997 2997 2998 2999 3001 3001 2997 2995 2991 2991 2996 2994 2995 2993 2989 2987
2967 2961 2955 2949 2942 2937 2934 2931 2929 2924 2921 2922 2922 2927 2933 2938 2945 2951 2956 2965 2971 2975 2979 2982 2986 2989 2991 2992 2992 2994 2992 2995 2995 2996 2995 2996 2995 2989 2986 2984 2985 2985 2983 2984 2981 2980 2980
2962 2957 2951 2945 2939 2933 2931 2929 2928 2922 2919 2919 2924 2930 2935 2940 2943 2949 2956 2963 2968 2974 2978 2981 2984 2986 2987 2989 2991 2988 2988 2991 2991 2993 2993 2992 2989 2985 2979 2977 2976 2973 2969 2970 2971 2975 2970
2959 2953 2948 2942 2937 2931 2929 2928 2926 2919 2918 2918 2925 2931 2932 2937 2942 2950 2955 2961 2968 2972 2977 2979 2981 2983 2984 2985 2986 2986 2986 2988 2987 2988 2989 2989 2984 2981 2974 2969 2967 2962 2958 2959 2963 2962 2961
2955 2949 2945 2940 2935 2930 2928 2927 2925 2922 2919 2923 2928 2932 2934 2936 2943 2950 2957 2962 2966 2971 2974 2976 2976 2978 2980 2981 2982 2982 2983 2985 2985 2984 2984 2984 2975 2972 2963 2959 2957 2951 2949 2949 2951 2948 2954
2951 2947 2942 2938 2933 2929 2927 2927 2926 2921 2923 2926 2929 2931 2934 2938 2945 2950 2956 2960 2964 2969 2971 2972 2974 2975 2976 2976 2978 2980 2979 2980 2981 2980 2979 2977 2971 2967 2954 2951 2944 2937 2934 2936 2935 2942 2943
2948 2944 2940 2936 2931 2927 2926 2927 2928 2925 2926 2929 2931 2931 2936 2938 2942 2950 2953 2958 2963 2966 2968 2970 2971 2972 2972 2973 2973 2976 2977 2977 2977 2977 2976 2973 2970 2966 2952 2947 2938 2933 2926 2925 2926 2933 2939
2946 2942 2938 2935 2930 2926 2923 2924 2924 2924 2925 2927 2931 2934 2938 2941 2945 2949 2954 2958 2961 2963 2965 2967 2968 2969 2970 2969 2970 2971 2971 2973 2973 2972 2972 2970 2968 2965 2955 2947 2938 2933 2927 2921 2922 2930 2934
2945 2940 2936 2933 2930 2925 2922 2921 2922 2925 2926 2929 2932 2936 2939 2943 2946 2950 2953 2956 2959 2961 2961 2962 2964 2966 2966 2967 2969 2970 2971 2972 2968 2967 2966 2968 2967 2965 2960 2952 2944 2937 2933 2929 2928 2928 2930
2942 2938 2934 2931 2928 2925 2923 2922 2923 2924 2926 2930 2933 2937 2940 2943 2946 2949 2952 2954 2957 2957 2958 2958 2960 2961 2963 2966 2967 2967 2968 2968 2967 2965 2964 2964 2965 2966 2962 2960 2953 2946 2942 2938 2936 2937 2940
2939 2935 2932 2928 2924 2922 2921 2921 2922 2923 2925 2929 2934 2936 2941 2944 2946 2949 2951 2953 2954 2955 2955 2955 2956 2955 2958 2962 2966 2965 2965 2966 2965 2964 2963 2962 2962 2963 2963 2962 2955 2951 2946 2943 2943 2950 2945
2936 2933 2929 2926 2922 2919 2918 2918 2920 2922 2924 2929 2933 2936 2940 2942 2946 2947 2949 2950 2951 2952 2952 2953 2953 2952 2954 2960 2962 2963 2964 2964 2963 2963 2962 2962 2962 2961 2961 2961 2957 2953 2952 2951 2951 2948 2946
2934 2930 2927 2923 2920 2917 2917 2917 2918 2920 2923 2928 2932 2935 2938 2941 2945 2946 2947 2948 2949 2948 2949 2949 2950 2950 2953 2957 2959 2960 2960 2961 2961 2960 2959 2960 2960 2960 2959 2958 2956 2955 2954 2953 2952 2950 2948
Wind_Speed
28 28 29 28 28 27 28 31 26 29 25 25 27 22 25 23 23 21 19 18 18 19 17 15 14 13 14 17 19 22 16 11 7 12 19 20 22 23 26 24 26 30 31 33 37 38 38
29 29 30 31 31 30 28 30 29 34 28 25 26 24 23 25 24 23 21 19 19 19 18 17 14 13 13 14 15 20 19 18 17 16 14 16 17 17 21 22 25 27 25 29 35 38 39
32 33 34 35 34 33 32 32 31 37 32 25 23 26 24 25 25 24 23 21 21 21 20 18 16 14 12 9 11 13 16 18 17 16 16 17 16 18 20 21 24 27 29 30 33 31 32
35 36 36 36 37 38 36 34 34 36 42 40 23 26 25 24 25 25 24 22 23 23 21 21 19 18 17 15 13 12 14 16 16 16 17 19 23 24 26 23 19 17 22 26 24 25 30
39 39 37 37 38 37 38 40 36 36 37 47 39 26 29 23 24 25 25 24 24 23 22 23 21 19 19 19 17 18 17 17 17 18 19 21 23 23 25 21 19 21 21 18 17 16 20
42 40 36 35 35 36 36 37 40 36 36 39 45 34 26 26 25 26 27 26 27 24 24 24 22 18 19 14 13 12 12 16 20 20 21 22 23 24 21 21 16 15 19 19 17 18 21
49 49 46 37 32 32 34 34 37 40 36 36 42 47 25 29 28 28 32 27 26 26 26 23 9 4 10 9 11 12 11 14 16 21 22 24 27 31 28 25 27 25 22 22 20 16 24
50 50 45 38 40 36 29 30 28 28 29 32 37 47 32 35 29 29 29 30 27 23 20 21 22 22 23 22 22 21 19 20 20 22 22 25 32 27 26 28 28 29 30 33 36 34 35
49 46 42 39 39 37 29 23 21 24 24 24 30 41 43 37 30 34 31 21 26 22 21 22 21 20 21 24 26 23 21 20 19 20 20 25 21 8 20 28 30 32 34 34 35 31 33
47 44 40 41 43 37 35 26 27 28 27 26 21 38 44 31 31 35 35 30 23 15 11 12 17 21 25 27 29 23 21 19 21 20 16 21 26 29 29 28 22 31 28 26 27 23 14
45 41 38 43 42 38 30 26 24 29 29 28 28 29 52 36 34 41 34 19 13 12 2 8 16 17 17 20 14 7 10 20 22 20 20 20 16 11 25 33 27 25 23 20 16 20 25
43 39 40 43 41 36 23 22 24 25 29 26 27 25 43 39 40 39 33 22 18 10 7 8 11 13 14 16 12 9 10 11 15 21 25 28 27 28 24 19 19 27 19 18 18 19 15
40 38 41 41 38 32 27 24 23 37 19 24 21 23 46 35 37 35 36 30 19 8 7 8 13 16 16 15 12 11 11 16 13 13 22 24 29 33 31 27 26 20 15 4 7 8 8
38 38 41 40 36 34 27 23 31 38 17 13 12 23 34 46 25 39 37 36 7 11 13 9 13 15 15 11 11 13 13 19 22 25 17 9 10 15 25 29 25 26 32 10 5 4 4
38 38 40 38 35 32 19 24 36 33 13 8 7 25 32 39 28 40 39 33 16 14 27 12 16 16 12 10 9 7 16 22 23 26 18 8 11 15 20 17 21 20 30 35 20 17 5
37 36 37 36 34 29 17 21 29 34 19 7 9 13 29 24 28 43 43 22 22 14 12 19 17 10 9 7 9 9 10 5 12 16 20 12 16 16 21 17 22 31 19 11 21 5 5
36 33 34 34 32 26 15 20 26 33 21 7 12 15 33 29 32 38 37 23 25 22 15 16 13 11 8 6 10 12 8 7 7 7 13 17 16 9 8 17 27 27 34 20 12 10 4
35 31 32 33 32 25 13 19 24 28 18 3 7 16 19 16 38 45 32 27 23 21 19 14 9 11 12 12 11 15 19 18 7 10 13 14 13 19 30 29 27 29 35 39 21 9 15
32 30 31 30 31 22 12 17 23 27 16 15 13 16 20 22 33 41 32 33 29 22 19 15 11 8 8 11 9 14 17 12 20 16 6 8 11 10 8 10 28 32 41 42 44 28 26
32 29 28 27 30 19 10 17 22 28 8 13 17 14 30 37 38 43 34 32 25 21 19 21 19 18 17 15 16 10 12 8 8 9 16 20 23 24 21 27 18 18 32 40 45 30 32
31 27 24 26 28 20 10 14 21 24 11 17 23 16 35 42 25 35 37 26 30 27 22 20 17 18 15 15 16 21 22 12 9 8 15 19 28 33 43 45 44 45 33 29 36 52 29
28 25 24 25 27 22 8 11 18 13 9 11 11 9 37 8 40 33 31 28 20 23 23 21 18 10 14 18 19 5 11 20 17 13 15 24 32 32 44 45 39 42 44 43 41 34 39
25 23 23 24 26 21 10 7 10 9 15 11 12 13 33 12 33 34 29 30 24 17 17 18 14 13 12 11 13 15 12 11 12 13 22 28 27 20 23 29 31 10 16 24 32 28 29
23 22 22 23 24 19 8 4 4 5 9 13 8 17 30 16 21 25 24 23 21 21 15 9 9 10 9 9 11 15 23 20 18 19 23 29 29 18 19 22 4 19 25 7 19 23 22
27 23 23 24 23 18 9 2 1 5 12 12 12 15 21 19 14 17 26 18 8 14 18 17 14 15 10 9 3 4 7 15 23 23 25 20 24 10 7 15 15 20 23 19 12 4 11
27 24 23 24 22 17 8 2 4 10 17 16 15 8 12 9 12 8 10 15 15 11 14 16 16 12 16 14 9 4 5 4 4 5 5 8 12 18 11 5 4 18 17 14 14 16 12
26 24 22 24 22 15 8 4 5 10 13 20 18 16 14 11 8 10 13 12 12 15 15 11 13 13 18 21 16 7 5 5 4 3 5 5 10 17 11 5 7 14 11 11 8 5 3
24 22 21 23 19 14 8 5 7 11 17 21 20 19 13 18 12 12 11 9 12 14 14 8 5 12 22 24 13 10 9 7 7 8 4 5 3 4 4 5 4 11 5 5 6 6 2
23 21 21 23 21 14 8 7 8 15 13 24 22 17 15 15 10 13 10 13 15 15 10 13 5 14 14 18 14 8 8 6 7 4 4 5 8 4 5 2 4 7 5 5 6 8 7
Wind_Direction
313 310 306 303 297 290 283 266 275 273 278 277 272 266 264 258 262 262 258 259 259 260 261 264 266 262 259 256 249 257 257 252 242 228 234 242 247 247 251 252 248 253 251 251 255 256 255
320 312 303 300 296 290 285 268 261 263 266 268 268 265 258 259 257 258 257 255 256 257 257 260 263 262 260 261 244 252 256 254 247 243 243 232 246 244 246 246 248 254 257 254 254 256 258
322 316 308 303 295 290 284 275 265 251 256 259 268 262 257 253 252 251 253 252 252 252 252 253 254 255 251 252 249 255 254 254 248 243 244 236 233 240 246 253 256 257 261 258 257 260 264
323 318 312 304 296 290 283 277 269 254 248 252 256 256 252 250 255 247 248 247 249 247 248 250 247 249 256 253 255 249 251 255 254 247 238 236 242 245 248 249 251 270 272 270 270 263 262
322 319 315 308 301 294 287 281 274 264 251 249 249 246 248 238 251 253 243 242 244 246 246 248 248 250 258 257 254 253 252 250 253 247 240 239 242 243 240 239 256 256 259 269 275 249 260
328 326 323 316 307 298 288 282 279 271 260 246 244 247 240 232 233 244 250 238 238 240 242 247 253 251 246 246 243 240 239 240 237 239 240 237 238 242 236 230 230 238 254 264 263 278 271
334 333 332 328 320 307 298 289 282 275 264 250 240 237 231 242 221 233 241 239 235 237 239 245 232 220 247 242 228 232 234 243 242 234 237 241 237 237 250 255 259 249 253 262 263 266 279
334 333 336 336 330 329 310 296 293 295 289 257 241 240 237 243 215 226 241 244 239 243 244 243 244 241 251 255 252 252 252 250 246 242 237 240 250 255 255 251 251 251 259 264 270 271 271
330 331 331 330 327 324 315 302 291 290 286 280 247 225 221 228 210 222 227 233 240 240 252 250 248 242 245 254 255 251 251 250 246 243 242 248 254 254 248 253 250 253 256 264 270 282 273
329 330 330 329 327 321 314 291 288 289 283 268 259 219 211 211 210 219 221 233 237 242 254 259 245 244 237 241 257 262 249 239 238 244 246 262 256 255 258 256 250 258 261 270 271 269 260
329 333 330 330 332 327 314 296 300 302 290 278 251 228 208 216 216 223 212 204 210 222 306 232 219 222 223 214 228 212 213 226 233 244 240 252 268 270 253 254 254 253 272 275 272 262 270
332 333 329 329 334 330 314 294 313 318 297 277 257 241 204 216 224 216 203 207 199 185 244 209 196 195 181 184 186 197 208 219 234 246 255 260 268 266 263 265 264 257 251 252 253 247 249
333 329 327 330 331 328 314 296 304 314 308 274 267 260 206 212 227 206 189 180 168 193 198 213 192 189 180 189 195 206 217 220 223 224 245 258 261 261 260 261 258 242 226 223 228 211 250
335 329 328 331 333 330 319 305 310 341 322 282 261 237 208 211 219 194 192 174 174 200 205 207 184 175 188 193 226 220 226 232 232 238 251 264 282 244 254 246 246 246 234 222 235 230 256
336 327 328 330 332 328 322 300 301 346 324 308 244 202 206 202 205 203 193 176 188 188 205 180 164 180 196 222 224 214 242 250 247 228 229 239 253 247 263 267 239 236 222 247 244 239 248
330 329 327 328 330 327 319 309 324 340 338 260 224 236 197 213 212 185 187 186 188 191 188 203 188 196 184 196 211 217 241 270 252 248 234 245 274 281 255 251 232 229 242 211 217 229 234
332 330 327 330 330 328 313 316 327 330 357 291 220 208 180 167 194 191 184 182 185 201 202 175 201 204 209 235 233 222 243 261 246 243 224 233 244 269 254 231 237 226 231 226 228 218 201
337 332 329 330 332 326 310 310 325 332 358 46 226 203 214 194 168 178 188 188 190 194 197 203 214 235 250 266 251 236 246 247 238 239 239 255 249 253 258 277 266 258 250 233 221 209 232
340 334 331 333 334 329 308 312 324 325 9 23 191 171 215 196 187 186 192 195 208 211 216 220 233 231 245 267 240 252 262 256 239 245 264 239 238 282 285 267 242 238 243 238 238 243 236
339 337 336 336 338 335 310 310 321 323 131 132 158 157 171 185 189 191 195 200 207 207 219 231 259 269 270 266 248 252 259 249 241 243 249 259 252 253 255 267 269 234 240 242 230 233 240
339 343 340 337 340 341 313 306 321 325 165 149 159 187 184 197 192 196 207 208 219 223 231 237 254 261 265 256 240 243 248 230 221 267 259 253 268 273 279 282 273 265 253 248 238 240 239
338 342 339 338 339 341 320 306 312 19 159 200 158 234 185 195 204 191 204 217 214 226 234 242 262 265 258 236 226 238 253 236 253 276 271 266 266 281 284 298 291 275 269 257 251 253 253
340 341 340 338 339 341 328 291 299 34 154 163 187 185 192 214 198 208 213 222 231 246 243 254 264 256 264 260 260 240 249 217 227 278 292 269 268 285 289 307 311 304 306 255 247 247 237
347 340 339 338 339 339 325 297 328 69 156 201 206 165 187 173 191 198 213 215 225 234 250 230 241 236 277 288 250 229 226 237 257 268 272 278 287 280 287 332 327 341 353 312 236 240 242
343 338 338 336 336 334 322 342 163 164 170 193 194 173 189 197 187 205 220 230 228 250 250 234 236 251 267 232 251 227 238 260 270 270 265 268 277 282 300 322 303 21 1 13 53 330 227
342 338 335 335 332 331 319 276 181 203 197 167 163 178 195 178 198 206 216 228 241 239 279 248 246 254 239 218 211 235 212 242 287 302 331 234 267 258 312 316 338 352 5 19 64 55 76
338 338 335 335 331 326 315 239 202 203 207 193 192 181 206 186 176 212 234 239 236 257 260 249 271 246 210 197 206 223 216 238 260 271 298 237 265 256 270 274 297 355 356 2 28 17 74
343 343 338 336 334 322 306 234 190 190 198 167 188 200 197 216 232 250 237 245 257 258 265 269 268 180 182 188 204 206 236 243 252 247 250 235 230 259 218 251 312 9 27 54 32 16 349
342 337 337 334 328 318 294 234 193 182 200 198 202 211 257 214 222 223 231 258 269 264 261 273 278 176 191 191 214 211 212 227 257 284 280 248 225 256 236 287 348 17 67 49 36 37 42